RH
76 77 80 82 84 87 89 91 93 92 93 93 89 89 89 85 84 85 84 83 80 80 79 77 79 78 75 70 67 70 69 66 67 64 61 62 60 59 58 57 53 49 46 43 46 47 46 47 43 40 41 42 45 48 49 50 49 47 43 41 37 35 34 32 32 32 33 32 33 33 33 32 33 35 36 38 38 37 36 36 35 36 37 39 42 45 49 49 49 48 46 46 46 47 49 49 47
77 79 82 85 87 89 89 89 93 92 90 90 87 87 85 82 82 82 82 81 79 79 78 76 76 76 71 68 67 66 67 69 69 65 62 59 57 55 55 55 52 50 47 45 46 46 46 46 41 40 42 43 46 47 49 49 47 45 42 40 37 37 36 36 36 38 39 39 40 39 39 39 42 47 48 48 45 45 44 40 38 38 41 45 48 52 56 55 54 55 50 50 51 50 50 48 48
77 80 84 86 88 89 88 88 92 91 87 85 85 86 83 82 82 81 81 81 80 78 75 74 74 75 71 68 68 65 65 68 67 65 63 58 54 53 52 53 51 50 49 47 47 45 46 44 41 42 43 45 46 47 48 46 44 43 41 40 39 40 41 41 41 41 42 43 45 46 50 53 56 59 56 53 51 53 54 50 48 49 50 49 52 55 60 60 59 58 51 52 57 55 50 46 48
78 81 84 85 87 88 88 88 89 87 85 84 84 85 82 81 81 81 82 81 81 77 73 73 72 75 71 67 68 66 65 67 65 63 62 57 53 50 49 51 50 50 49 48 47 45 45 44 42 43 44 45 47 47 47 44 42 41 41 41 42 44 44 45 44 45 46 46 50 55 62 62 61 60 57 54 53 54 56 55 52 53 54 51 52 55 61 62 60 59 52 50 55 55 51 48 50
78 80 84 85 85 86 86 87 88 86 85 83 83 84 81 79 80 80 81 80 79 77 74 72 70 72 70 68 69 65 65 67 63 61 60 56 50 48 48 49 50 49 48 48 47 45 45 45 44 43 44 45 47 48 46 44 42 42 43 45 46 48 48 49 50 51 51 54 60 62 60 59 61 60 58 57 57 59 58 55 51 51 54 53 54 56 61 62 58 58 54 51 50 52 51 51 53
75 79 84 86 85 85 85 84 87 86 84 82 82 84 81 78 79 79 79 78 78 76 74 71 68 68 67 69 69 66 65 64 61 59 58 53 47 47 47 48 49 47 45 45 45 46 46 46 44 42 43 45 47 46 45 44 43 44 46 48 50 51 51 52 53 53 55 62 65 60 55 58 61 59 57 57 58 63 63 56 51 54 57 55 55 56 57 57 57 57 56 54 52 52 49 48 51
73 77 82 86 84 84 84 83 84 85 83 82 82 83 80 78 80 78 76 75 75 74 72 72 69 65 65 67 67 65 65 62 58 56 53 49 45 43 44 45 45 44 42 42 44 47 46 43 41 40 40 42 44 44 43 43 43 44 47 51 53 53 53 54 54 54 60 66 61 58 60 61 60 57 56 57 59 62 63 57 53 56 60 60 58 54 52 52 55 57 56 56 56 55 51 49 51
74 76 79 83 83 82 83 84 83 83 83 82 82 82 80 79 79 77 74 72 71 71 70 71 69 65 65 66 64 64 64 59 54 51 48 46 42 39 41 41 42 41 40 41 44 48 44 39 38 38 38 39 40 40 41 42 44 47 51 55 55 54 54 54 54 55 63 65 59 60 64 63 60 58 56 58 62 63 65 60 54 55 60 64 59 51 47 47 52 54 54 57 59 59 56 56 55
75 77 77 79 82 82 82 83 82 82 83 83 82 82 82 81 79 76 74 73 71 70 69 69 68 65 66 66 63 64 62 56 50 48 46 44 40 36 37 39 39 39 39 41 45 48 44 40 39 39 40 40 39 39 41 44 48 51 53 56 56 55 55 55 55 56 63 64 60 61 62 61 61 60 58 59 62 64 65 62 58 57 58 61 59 52 45 44 50 53 55 60 61 60 60 61 58
75 76 77 76 79 82 82 82 81 82 84 84 83 83 84 82 80 77 75 74 73 71 69 69 67 65 66 65 63 64 61 54 49 49 46 42 38 35 35 37 37 37 38 40 45 48 47 45 43 41 38 38 40 42 44 47 50 52 54 56 56 56 55 56 56 56 61 61 58 59 59 61 61 60 60 59 61 63 64 62 61 59 58 59 57 53 45 45 52 55 58 61 61 60 61 61 58
75 74 75 75 77 82 83 81 81 83 85 85 85 85 84 82 80 79 75 75 74 71 69 68 66 65 66 64 64 64 60 54 51 50 47 42 37 35 34 36 37 36 36 40 44 47 48 47 42 36 34 37 43 46 47 48 50 52 54 56 55 56 55 55 56 57 60 58 56 58 58 60 62 61 61 59 59 62 62 62 61 59 59 58 53 49 46 50 56 58 60 60 59 59 60 59 55
75 74 73 75 75 80 82 80 80 82 83 84 85 86 84 82 79 77 76 75 73 70 69 68 66 65 64 63 65 62 58 55 53 51 46 42 38 35 34 35 36 36 36 40 43 45 47 44 37 34 35 40 46 48 48 50 51 51 53 56 56 56 54 54 55 57 58 57 56 57 58 61 63 62 62 61 59 59 59 59 60 60 61 60 53 48 51 56 58 61 61 60 59 58 59 58 54
75 74 73 73 73 77 78 78 79 80 82 82 83 85 83 80 78 78 77 75 72 69 69 68 67 66 63 63 64 60 56 54 53 51 46 42 38 35 34 35 36 35 36 39 42 44 44 38 34 37 40 44 48 48 48 50 52 51 52 55 56 56 54 54 55 57 57 56 56 57 57 60 63 63 62 63 61 57 57 58 59 58 63 65 57 52 55 57 59 61 61 60 59 57 57 56 52
73 74 73 71 70 73 75 76 77 78 80 81 82 83 81 78 78 80 79 74 71 70 68 67 68 66 65 64 62 57 53 51 52 51 46 41 37 34 33 34 35 35 35 37 40 41 38 34 35 41 44 47 48 49 50 50 51 50 50 53 55 55 55 56 56 58 58 57 57 56 56 57 59 61 62 64 63 60 58 59 60 58 62 65 57 56 58 57 57 59 60 61 60 59 57 55 52
73 74 72 69 68 70 71 73 74 76 77 78 80 81 80 78 77 79 80 76 71 68 67 66 65 63 64 63 60 56 52 49 50 50 44 39 35 33 32 33 34 34 34 35 37 36 34 35 38 42 46 48 48 50 50 49 49 47 50 54 55 55 55 57 58 58 59 60 60 59 57 57 59 61 62 63 63 61 59 60 61 60 61 63 57 56 59 58 57 58 59 61 60 59 58 55 53
73 74 72 68 68 69 69 70 72 74 74 75 78 79 78 78 77 78 79 76 71 68 65 63 62 60 61 63 60 56 52 48 48 46 41 36 34 32 31 31 33 33 33 33 33 33 35 37 38 41 47 48 49 49 49 49 48 49 54 56 56 57 57 58 60 60 60 61 61 62 61 59 60 59 59 61 62 60 59 60 61 61 61 62 59 56 57 57 56 56 57 59 58 57 57 56 54
72 74 72 68 66 67 68 70 71 73 74 75 78 77 77 77 75 76 76 73 70 68 64 60 59 59 59 59 58 55 50 47 46 42 38 34 32 32 30 30 32 32 32 32 31 34 37 37 37 42 46 47 48 48 48 50 50 53 57 57 57 58 58 58 60 60 60 61 62 61 60 58 59 59 58 60 60 59 58 58 60 61 59 59 56 51 53 55 54 54 56 57 56 55 54 52 52
72 72 70 67 65 66 68 71 72 73 75 76 78 77 76 76 74 73 73 70 68 65 64 61 59 60 58 54 53 52 49 47 44 39 36 33 32 31 29 29 31 31 31 31 33 36 36 37 40 43 44 45 47 47 49 50 49 53 56 56 58 58 58 57 58 61 61 62 62 61 60 58 58 59 59 59 59 58 56 57 60 60 58 57 51 46 49 52 53 53 55 56 54 53 51 49 49
69 69 68 67 64 66 69 71 72 73 75 75 75 76 76 76 75 73 71 67 65 63 62 61 60 60 56 50 49 49 47 47 43 37 35 32 30 30 29 30 30 30 30 32 35 36 36 38 43 44 43 44 45 46 48 48 48 50 52 56 58 58 58 58 57 58 60 61 61 61 62 63 61 60 59 57 59 57 55 57 59 60 59 57 50 45 48 50 51 52 54 55 54 53 50 46 46
66 67 67 66 63 65 69 72 73 74 76 75 74 74 74 74 75 74 71 67 66 62 59 60 59 58 54 49 48 45 44 45 42 37 33 29 28 29 28 29 29 28 30 34 36 36 37 40 43 43 43 42 42 45 45 44 47 49 51 55 57 58 59 59 57 55 58 58 58 60 61 64 65 63 62 59 58 56 54 55 58 59 59 56 51 47 47 50 52 52 53 55 54 53 50 44 44
65 68 66 64 63 63 67 71 74 75 76 76 74 74 72 72 74 73 70 68 68 62 58 59 58 57 53 49 46 43 43 43 41 36 30 27 28 29 27 26 26 28 32 35 36 36 38 40 43 43 40 38 37 40 40 40 46 49 52 55 57 58 59 59 58 56 55 55 56 58 59 61 62 61 63 60 56 57 58 58 57 57 56 54 52 48 44 47 52 52 54 55 55 56 52 48 46
64 67 65 64 62 61 63 69 74 75 76 77 77 75 72 72 71 69 67 66 67 63 61 60 57 56 55 51 46 43 42 42 41 35 28 27 27 27 26 24 27 30 34 36 35 36 38 40 41 41 38 36 34 34 34 36 43 50 55 57 57 58 59 59 60 58 54 52 53 56 56 58 58 58 60 59 56 57 59 57 55 54 54 53 52 48 43 45 50 52 55 57 58 59 57 52 48
65 65 63 62 60 58 60 66 73 75 75 77 77 75 73 72 71 68 68 67 67 65 64 62 56 55 55 54 49 44 42 42 40 33 27 26 25 24 23 23 26 30 35 36 36 36 38 40 40 38 36 34 32 30 32 37 44 52 56 57 56 57 57 57 58 58 54 51 51 53 55 56 57 58 58 59 59 58 56 55 53 52 53 53 52 48 45 47 51 53 56 58 59 60 57 52 46
64 62 60 60 59 56 56 60 68 72 73 75 77 76 74 73 73 71 70 69 68 66 64 62 58 57 57 55 52 46 43 42 39 33 29 27 25 24 22 23 24 27 34 35 35 36 37 38 38 36 34 33 31 30 34 40 46 52 55 55 55 54 54 55 55 55 54 52 51 51 52 54 55 56 57 58 59 59 56 54 53 52 52 52 51 48 46 49 52 54 56 57 58 57 54 50 46
59 58 58 59 58 55 52 53 60 68 72 74 76 76 74 74 74 72 70 69 67 65 63 63 59 58 58 56 52 47 44 42 39 34 30 28 26 25 23 23 23 26 32 33 32 35 36 36 34 34 34 31 29 32 37 42 47 52 54 55 55 55 54 54 54 54 54 53 51 51 51 52 52 52 54 56 58 59 56 54 52 51 51 51 50 47 45 49 52 55 56 56 54 53 51 48 46
52 54 56 56 55 52 49 49 54 65 71 73 73 74 73 72 72 72 71 68 66 64 63 62 60 58 58 57 54 49 46 44 40 35 31 28 27 26 23 22 22 24 29 30 30 32 34 33 31 32 32 30 30 35 40 44 48 51 53 55 56 57 57 57 55 53 53 52 51 51 51 51 51 50 50 53 56 57 56 53 51 49 49 50 49 46 45 49 52 54 54 52 50 49 49 47 46
46 48 52 53 52 49 47 48 54 65 71 73 71 71 71 70 70 70 70 67 63 62 61 60 59 59 58 56 54 51 48 45 41 37 33 30 28 26 23 21 20 23 27 30 30 30 31 30 30 30 29 27 31 36 41 44 48 51 53 56 58 59 59 59 56 54 53 52 51 50 50 50 51 51 50 51 54 55 53 51 49 47 47 48 48 45 47 49 50 49 47 46 46 47 48 48 46
44 45 47 49 50 47 45 48 55 63 68 71 70 70 70 69 70 69 69 66 61 59 59 59 57 58 59 55 54 53 51 47 43 37 32 30 28 26 22 18 19 21 25 28 30 30 29 28 29 29 27 26 31 35 38 42 46 51 54 57 60 60 59 59 57 55 54 52 51 50 50 49 50 51 51 50 50 51 50 49 48 47 47 47 47 46 47 46 44 42 41 42 44 45 47 48 46
43 43 43 45 47 46 47 49 53 57 64 70 69 69 68 68 69 68 68 66 62 58 57 58 56 57 59 56 53 53 53 49 43 36 32 31 28 25 21 17 17 19 23 27 30 30 28 27 29 29 26 26 30 33 35 39 44 50 55 57 59 61 60 59 57 56 56 54 52 51 49 47 47 49 50 49 48 48 48 48 49 48 48 47 46 46 44 42 40 39 40 41 42 44 46 47 46
43 42 40 43 46 46 48 51 51 53 62 68 66 67 65 66 68 67 68 67 63 59 56 56 56 56 58 56 54 53 54 50 43 36 33 33 29 25 21 18 16 17 21 26 29 31 28 27 29 29 26 25 29 31 33 37 42 49 54 57 59 60 59 60 60 59 59 59 56 54 51 48 47 47 48 50 50 48 46 47 47 47 47 46 46 45 43 42 42 41 41 41 42 44 46 47 47
41 42 40 41 44 44 47 52 51 50 59 64 64 66 64 64 66 67 69 68 66 62 57 56 54 55 56 56 54 53 54 51 42 38 37 34 30 26 22 19 17 16 19 24 28 30 28 27 28 28 24 23 26 29 32 35 40 48 53 56 58 58 59 61 63 62 62 62 59 57 54 52 49 48 47 48 49 48 46 46 46 47 47 47 48 48 46 46 46 46 44 45 46 46 48 48 47
40 43 41 39 40 42 46 52 51 48 55 60 61 65 63 61 64 67 69 69 68 63 59 59 55 54 55 55 54 53 53 52 46 41 39 35 30 26 22 20 19 17 18 22 28 30 29 27 28 27 22 20 24 28 31 33 38 45 49 54 57 57 58 61 62 62 62 62 60 57 55 54 50 47 47 46 47 48 47 47 46 46 47 49 50 51 50 49 49 49 48 48 48 48 49 49 48
40 42 41 38 38 41 43 47 50 47 51 57 59 62 62 61 62 66 69 70 69 64 61 62 59 56 55 55 55 54 53 53 51 45 40 36 30 25 22 20 20 19 19 21 27 30 30 28 27 27 23 18 22 27 30 31 35 41 45 52 55 56 58 60 62 63 62 62 60 57 55 53 49 47 47 46 47 47 47 47 47 46 47 47 49 50 50 50 50 51 50 50 49 48 49 49 47
39 40 40 38 37 39 39 43 49 47 48 54 58 58 59 61 63 66 69 71 70 68 66 64 61 58 56 55 56 55 53 52 52 48 42 37 32 28 26 24 21 19 19 21 26 30 30 30 29 27 23 20 20 25 30 31 34 37 43 51 54 55 58 60 61 61 61 61 59 57 55 53 49 46 46 47 46 46 45 45 46 46 46 46 46 47 48 47 48 50 49 50 50 49 48 47 46
37 37 38 38 37 37 38 41 45 45 46 50 54 56 56 59 62 64 67 70 71 72 72 68 63 60 57 55 55 56 54 52 52 50 45 40 34 32 29 27 24 20 18 20 24 30 31 31 32 29 24 21 20 24 29 31 33 36 43 51 54 55 57 58 59 60 60 61 60 57 54 53 50 47 45 46 45 44 44 44 44 45 46 46 44 44 44 44 45 46 47 48 50 50 49 46 44
34 35 36 38 38 36 37 40 39 41 44 46 49 51 52 55 59 61 63 67 70 71 73 71 65 60 56 54 53 53 54 54 53 51 48 44 38 34 31 28 27 23 20 18 20 27 32 32 33 31 26 23 22 23 27 31 32 36 42 49 52 54 55 56 57 58 60 60 59 56 54 52 50 47 46 45 44 42 42 43 43 43 44 44 44 43 42 42 43 45 47 47 48 48 48 46 44
29 33 34 37 39 37 37 39 38 38 41 43 45 47 47 48 52 55 58 64 68 69 72 72 68 61 54 53 53 51 52 54 54 53 50 47 42 37 34 30 28 26 23 21 19 21 29 32 33 32 28 25 23 23 26 29 31 36 41 44 49 52 53 55 55 57 59 58 56 54 52 51 49 48 47 46 45 43 42 41 41 42 41 41 43 43 43 43 43 45 46 47 47 47 46 46 45
26 29 33 35 37 37 37 38 38 38 39 39 39 41 41 40 43 46 50 56 62 64 68 70 69 65 57 53 53 53 51 50 51 53 51 49 46 41 37 33 29 28 27 25 22 20 22 28 32 33 30 27 25 25 26 28 29 34 38 40 46 50 50 53 53 55 57 55 55 53 50 49 48 49 48 47 46 45 43 41 39 40 40 41 42 43 43 44 44 44 45 46 47 47 47 46 45
26 26 29 33 35 36 37 37 37 37 37 36 34 34 33 33 35 40 44 47 52 57 59 62 66 68 64 56 54 55 52 47 47 50 52 50 49 44 40 36 31 28 28 28 27 24 21 23 28 32 32 29 27 27 27 28 29 33 36 37 44 48 48 51 51 53 55 54 54 53 50 48 48 49 48 47 46 45 44 41 38 38 39 39 42 43 44 45 45 45 44 45 46 46 45 44 44
27 26 27 30 33 36 37 36 36 36 36 35 33 32 31 30 31 35 39 40 45 50 53 56 60 65 68 62 56 55 53 48 45 47 51 50 49 45 40 37 33 29 27 27 28 28 26 23 23 26 30 30 29 28 29 30 30 33 35 36 42 45 46 49 49 51 53 52 51 52 49 48 47 49 49 48 46 45 43 42 40 39 38 38 39 41 43 45 46 46 45 44 45 44 42 41 41
27 26 26 26 29 34 35 35 35 35 35 34 33 31 31 33 32 31 33 36 39 45 49 54 58 60 67 66 58 55 55 52 47 45 48 50 48 45 40 37 35 30 27 26 26 28 28 27 22 21 24 28 29 28 29 31 31 32 35 36 39 43 44 47 49 49 49 47 48 50 49 48 47 49 49 48 47 45 43 43 42 41 40 38 37 38 39 42 45 44 43 42 42 43 41 39 39
28 24 22 22 25 29 33 34 33 34 35 34 33 33 33 35 34 31 32 35 36 41 47 52 57 58 63 66 61 57 57 56 52 47 46 49 48 45 41 38 36 32 27 25 26 26 28 30 26 21 21 23 26 28 28 30 30 30 34 36 38 41 44 47 49 49 47 44 46 48 48 47 46 47 47 46 46 45 44 44 43 41 41 40 39 37 36 37 40 41 40 39 39 40 40 37 38
31 25 20 20 22 24 29 32 32 34 34 33 31 32 33 31 31 32 33 34 34 39 46 49 53 57 59 63 62 60 59 58 57 52 48 47 48 46 43 39 36 33 30 27 26 25 26 29 30 25 22 22 22 24 27 29 29 29 32 36 37 39 42 46 48 49 47 44 45 46 46 45 45 45 45 45 45 45 45 44 43 42 43 42 41 39 37 34 35 36 37 37 38 38 38 36 36
30 26 22 22 21 22 26 29 31 32 32 32 30 30 32 30 32 35 35 36 38 43 49 49 51 55 59 62 62 62 62 60 58 56 52 48 46 46 45 40 36 34 32 29 26 25 24 26 30 29 26 24 22 21 24 28 28 27 30 35 36 37 39 42 45 47 46 44 45 45 43 44 45 45 45 45 45 46 45 45 44 44 44 44 41 39 37 33 32 32 33 36 36 37 38 36 35
27 25 23 23 23 24 26 26 29 30 29 32 31 28 30 33 36 37 37 43 48 51 54 54 54 56 60 63 62 64 64 61 59 58 54 50 46 46 45 42 38 35 34 30 28 26 24 24 27 29 28 26 24 21 21 25 28 27 29 32 34 34 34 37 40 44 45 44 43 43 42 42 44 45 44 43 44 45 45 45 45 44 44 44 41 38 36 34 32 29 30 34 35 35 36 35 34
24 25 24 23 22 24 24 25 26 26 27 30 30 28 28 36 43 43 42 46 47 48 51 53 54 56 61 65 65 66 66 63 60 59 56 52 47 46 45 44 40 37 35 32 29 28 26 24 24 26 27 27 26 23 21 22 25 26 27 30 32 32 31 32 36 39 42 43 42 41 41 40 42 44 43 43 43 44 44 44 44 43 44 44 42 39 37 36 34 30 28 31 33 33 34 36 36
22 24 23 22 20 21 22 23 23 24 26 27 28 29 26 32 46 51 50 48 46 45 46 50 52 53 59 66 67 67 69 67 62 60 58 55 50 48 46 44 42 40 37 34 31 29 27 25 24 24 25 27 28 26 22 21 22 24 25 27 30 30 29 29 31 34 38 41 42 40 39 38 37 39 42 43 44 45 45 43 43 44 45 44 43 41 39 38 38 34 30 30 32 33 33 36 39
22 22 21 21 22 21 21 21 22 24 25 24 25 27 27 37 51 54 51 48 46 45 44 48 51 51 54 61 64 66 71 71 66 62 60 58 55 52 48 45 43 42 40 37 34 32 29 27 26 24 24 25 27 28 24 21 21 21 22 25 27 28 29 28 27 30 33 38 41 39 37 36 35 35 38 41 43 45 46 45 44 45 46 44 43 43 41 39 39 37 34 32 33 34 35 37 40
20 21 21 23 25 26 26 24 23 23 21 21 22 21 28 46 55 53 50 47 46 46 44 46 50 52 53 57 60 63 67 69 68 66 62 60 59 56 52 49 45 44 43 41 38 36 33 30 27 26 25 24 26 27 26 23 21 20 20 22 24 26 29 28 26 27 29 34 38 39 36 35 34 34 35 38 39 42 43 45 45 45 46 45 44 43 42 40 39 38 37 36 36 36 37 39 42
18 20 22 25 27 28 30 28 25 23 20 20 20 19 28 43 48 49 49 47 48 49 46 46 49 51 53 56 58 59 61 64 68 68 65 64 63 60 56 52 48 46 45 44 42 38 35 33 30 28 26 25 24 26 26 25 23 21 20 20 21 23 26 27 26 26 27 29 33 36 37 36 34 33 34 35 37 38 39 41 44 44 45 45 44 43 42 40 38 38 38 38 39 39 40 41 43
18 21 22 24 25 26 28 27 24 21 19 19 19 19 27 37 43 47 47 46 50 52 50 48 49 49 50 54 57 59 59 63 66 69 69 67 64 62 60 56 50 47 45 46 45 41 38 35 33 30 27 26 24 24 25 25 25 23 21 19 19 20 22 24 26 26 25 25 27 31 35 37 36 33 32 34 35 36 36 37 39 40 42 44 45 45 44 41 38 37 37 38 39 41 41 41 41
20 21 23 24 24 24 26 25 23 20 18 20 21 22 28 33 36 41 43 45 48 50 52 50 49 49 49 51 56 59 59 60 61 64 68 69 64 62 61 59 54 49 46 46 45 44 41 38 36 33 30 27 25 24 24 25 25 24 22 20 19 20 21 22 23 24 24 24 24 26 31 36 38 35 33 33 34 34 34 34 35 36 38 40 42 44 45 42 39 37 36 36 39 41 40 39 39
22 22 23 24 23 24 26 26 25 21 19 24 27 28 32 32 32 35 39 42 44 46 50 50 49 50 49 51 56 60 60 60 59 59 61 65 66 64 63 61 57 53 49 46 44 43 43 41 38 35 32 29 27 24 24 24 25 25 24 22 20 20 21 21 22 22 22 23 23 24 26 31 37 37 35 33 33 33 33 31 32 33 35 37 39 42 43 43 40 38 37 37 39 40 40 39 38
22 22 23 23 23 24 25 26 26 22 23 30 34 36 39 39 37 38 37 38 41 43 47 51 51 50 49 51 56 60 61 60 61 60 59 62 64 63 63 63 60 57 55 51 47 45 43 43 41 38 35 32 29 27 24 24 24 24 25 23 21 20 19 20 21 21 21 20 22 22 23 26 32 34 35 34 34 34 33 31 30 31 33 35 37 39 41 41 40 39 39 38 38 39 39 39 38
22 22 22 23 25 26 26 26 26 24 27 36 37 37 42 46 47 48 44 40 41 43 45 50 51 50 50 51 54 59 62 61 62 63 62 62 62 60 61 64 63 60 58 56 54 51 46 43 43 42 40 37 34 31 27 25 23 24 24 24 23 21 20 20 20 21 20 19 19 20 21 23 26 29 31 33 34 33 33 32 31 31 32 33 36 38 39 40 39 39 39 39 39 38 38 39 40
22 22 22 23 25 26 27 26 25 25 29 36 37 35 39 47 53 54 52 47 44 44 45 47 48 47 48 50 53 57 61 63 64 65 64 64 64 62 62 66 67 64 62 59 57 56 51 47 43 43 43 42 38 34 30 27 25 24 24 24 24 23 21 21 20 20 20 19 17 18 20 21 22 24 26 28 31 33 33 34 33 32 32 32 34 36 38 38 37 37 38 38 38 38 38 38 40
23 23 24 24 24 25 26 26 25 26 29 33 36 35 36 46 53 54 52 50 46 46 46 46 47 47 48 50 53 55 57 60 62 64 65 66 66 65 63 64 65 66 64 60 58 57 56 53 47 43 43 42 40 38 35 32 29 26 25 24 24 24 23 22 21 19 19 20 18 17 18 19 20 21 22 23 26 29 31 32 33 33 32 32 33 35 36 37 36 35 36 36 36 36 37 37 38
25 24 25 24 25 26 27 27 26 27 30 33 35 35 36 43 51 52 51 48 47 47 47 47 49 52 54 53 54 55 55 55 57 60 62 64 66 66 64 63 63 64 63 61 59 59 58 57 54 48 44 42 41 39 38 36 34 31 28 26 25 24 24 23 22 20 19 19 20 19 18 18 18 20 20 20 22 24 27 29 30 31 32 31 32 33 34 35 34 33 34 35 36 35 35 35 37